Weather History for KBVY - May, 2014

Change the Weather History Date:

Saturday, May 17, 2014

  Actual Average Record
Temperature  
Mean Temperature 66 °F -  
Max Temperature 75 °F 62 °F 80 °F (1986)
Min Temperature 55 °F 43 °F 33 °F (2003)
Cooling Degree Days 1    
Growing Degree Days 16 (Base 50)    
Moisture  
Dew Point 53 °F    
Average Humidity 76    
Maximum Humidity 97    
Minimum Humidity 30    
Precipitation  
Precipitation 0.59 in - - ()
Sea Level Pressure  
Sea Level Pressure 29.91 in    
Wind  
Wind Speed 11 mph (South)    
Max Wind Speed 21 mph    
Max Gust Speed 29 mph    
Visibility 7 miles    
Events Rain    
Averages and records for this station are not official NWS values.
T = Trace of Precipitation, MM = Missing Value Source: NWS Daily Summary

Daily Weather History Graph

Daily Weather History Graph

Search for Another Location

Airport or City:

Trip Planner

Search our weather history database for the weather conditions in past years. The results will help you decide how hot, cold, wet, or windy it might be!

Date:

Astronomy

May. 17, 2014 Rise Set
Actual Time 5:19 AM EDT 8:01 PM EDT
Civil Twilight 4:47 AM EDT 8:33 PM EDT
Nautical Twilight 4:06 AM EDT 9:14 PM EDT
Astronomical Twilight 3:19 AM EDT 10:01 PM EDT
Moon 10:58 PM EDT (5/17) 7:59 AM EDT (5/17)
Length of Visible Light 15h 46m
Length of Day
14h 41m
Waning Gibbous, 89% of the Moon is Illuminated
May 17
Waning Gibbous
May 21
Last Quarter
May 28
New
Jun 5
First Quarter
Jun 13
Full

Hourly Weather History & Observations

Time (EDT) Temp. Dew Point Humidity Pressure Visibility Wind Dir Wind Speed Gust Speed Precip Events Conditions
12:53 AM 57.9 °F 57.0 °F 97% 29.96 in 4.0 mi ESE 5.8 mph - N/A   Overcast
1:53 AM 57.9 °F 55.9 °F 93% 29.93 in 5.0 mi ESE 11.5 mph - N/A   Overcast
2:06 AM 59.0 °F 57.0 °F 93% 29.93 in 6.0 mi ESE 10.4 mph - N/A   Overcast
2:22 AM 59.0 °F 57.9 °F 96% 29.92 in 6.0 mi SE 10.4 mph - N/A   Overcast
2:51 AM 57.2 °F 55.4 °F 94% 29.91 in 6.0 mi ESE 11.5 mph - N/A   Overcast
2:53 AM 57.9 °F 55.9 °F 93% 29.89 in 6.0 mi ESE 11.5 mph - N/A   Overcast
3:00 AM 57.9 °F 55.9 °F 93% 29.90 in 6.0 mi ESE 13.8 mph - N/A   Overcast
3:53 AM 59.0 °F 57.0 °F 93% 29.88 in 6.0 mi ESE 10.4 mph - 0.01 in   Overcast
4:53 AM 57.9 °F 55.9 °F 93% 29.86 in 6.0 mi SE 13.8 mph - N/A   Overcast
5:42 AM 60.1 °F 57.9 °F 93% 29.86 in 2.5 mi SE 20.7 mph 26.5 mph 0.04 in Rain Heavy Rain
5:50 AM 60.8 °F 57.2 °F 88% 29.86 in 4.0 mi SSE 18.4 mph 27.6 mph 0.05 in Rain Light Rain
5:53 AM 60.1 °F 57.9 °F 93% 29.85 in 4.0 mi SSE 15.0 mph 27.6 mph 0.06 in Rain Rain
6:06 AM 60.1 °F 59.0 °F 96% 29.87 in 2.5 mi SSE 16.1 mph 25.3 mph 0.07 in Rain Light Rain
6:17 AM 61.0 °F 59.0 °F 93% 29.87 in 5.0 mi SSE 18.4 mph 26.5 mph 0.09 in Rain Light Rain
6:35 AM 61.0 °F 59.0 °F 93% 29.86 in 1.8 mi SSE 16.1 mph 28.8 mph 0.17 in Rain Rain
6:53 AM 61.0 °F 59.0 °F 93% 29.85 in 1.2 mi SSE 13.8 mph 25.3 mph 0.32 in Rain Heavy Rain
7:14 AM 61.0 °F 59.0 °F 93% 29.87 in 2.0 mi SSE 13.8 mph 20.7 mph 0.13 in Rain Rain
7:24 AM 60.1 °F 59.0 °F 96% 29.88 in 4.0 mi SSE 11.5 mph - 0.15 in Rain Rain
7:53 AM 61.0 °F 59.0 °F 93% 29.87 in 9.0 mi SE 6.9 mph - 0.18 in Rain Light Rain
8:13 AM 60.1 °F 59.0 °F 96% 29.88 in 2.5 mi SE 9.2 mph - 0.01 in Rain Light Rain
8:30 AM 60.1 °F 59.0 °F 96% 29.88 in 5.0 mi SE 8.1 mph - 0.02 in Rain Light Rain
8:40 AM 61.0 °F 60.1 °F 97% 29.88 in 7.0 mi SE 4.6 mph - 0.02 in   Overcast
8:53 AM 62.1 °F 60.1 °F 93% 29.87 in 8.0 mi ESE 6.9 mph - 0.02 in   Overcast
9:01 AM 62.1 °F 61.0 °F 96% 29.88 in 9.0 mi SSE 4.6 mph - N/A   Overcast
9:31 AM 64.0 °F 62.1 °F 93% 29.89 in 10.0 mi SSW 6.9 mph - N/A   Overcast
9:53 AM 64.9 °F 60.1 °F 84% 29.88 in 10.0 mi WSW 9.2 mph - N/A   Overcast
10:53 AM 64.9 °F 59.0 °F 81% 29.89 in 10.0 mi West 5.8 mph - N/A   Mostly Cloudy
11:00 AM 64.9 °F 57.9 °F 78% 29.91 in 10.0 mi West 8.1 mph - N/A   Scattered Clouds
11:53 AM 68.0 °F 55.9 °F 65% 29.91 in 10.0 mi SW 10.4 mph - N/A   Partly Cloudy
12:53 PM 71.1 °F 51.1 °F 49% 29.90 in 10.0 mi SW 13.8 mph 20.7 mph N/A   Clear
1:53 PM 71.1 °F 48.0 °F 44% 29.90 in 10.0 mi SW 9.2 mph - N/A   Clear
2:53 PM 73.9 °F 42.1 °F 32% 29.90 in 10.0 mi SW 16.1 mph 21.9 mph N/A   Partly Cloudy
3:53 PM 75.0 °F 42.1 °F 31% 29.90 in 10.0 mi WSW 13.8 mph 21.9 mph N/A   Clear
4:53 PM 73.9 °F 41.0 °F 30% 29.91 in 10.0 mi WSW 15.0 mph 19.6 mph N/A   Clear
5:53 PM 72.0 °F 39.9 °F 31% 29.92 in 10.0 mi West 12.7 mph 21.9 mph N/A   Clear
6:53 PM 70.0 °F 39.9 °F 33% 29.94 in 10.0 mi West 11.5 mph - N/A   Clear
7:53 PM 66.0 °F 37.9 °F 36% 29.97 in 10.0 mi WNW 6.9 mph 20.7 mph N/A   Clear
8:53 PM 63.0 °F 37.0 °F 38% 29.99 in 10.0 mi WNW 9.2 mph - N/A   Clear
9:53 PM 60.8 °F 35.6 °F 39% 30.03 in 10.0 mi WNW 6.9 mph - N/A   Clear
10:53 PM 57.0 °F 36.0 °F 45% 30.03 in 10.0 mi WNW 8.1 mph - N/A   Clear
11:53 PM 55.9 °F 35.1 °F 45% 30.04 in 10.0 mi WNW 5.8 mph - N/A   Clear